[[{"header":{"parameterUnit":"m.s-1","parameterCategory":1,"la1":30.2991,"la2":30.254,"lo1":-89.0895,"lo2":-89.0444,"dy":0.0017,"dx":0.0017,"nx":28,"ny":28,"refTime":"2024-06-15T21:00:00:Z","depth":0,"parameterNumber":2,"parameterNumberName":"U-component_of_WINDS"},"data":[0,0,0,0,0,0,0,0,0,0,0,0,0,0,0,0,0,0,0,0,0,0,0,0,0,0,0,0,0,0,0,0,0,0,0,0,0,0,0,0,0,0,0,0,0,0,0,0,0,0,0,0,0,0,0,0,0,0,-0.723,-0.723,0,-0.7238,-0.7238,-0.7238,-0.7198,-0.7197,-0.7196,-0.7195,-0.7204,-0.7205,-0.7206,0,0,0,0,0,0,0,0,0,0,0,0,0,-0.718,-0.7182,-0.723,-0.723,-0.723,-0.7238,-0.7238,-0.7238,-0.7198,-0.7197,-0.7196,-0.7194,-0.7203,-0.7205,-0.7206,0,0,0,0,0,0,0,0,0,0,0,0,0,-0.7197,-0.7182,-0.723,-0.7211,-0.7209,-0.7238,-0.7238,-0.7238,-0.7199,-0.7197,-0.7195,-0.7194,-0.7203,-0.7205,-0.7207,-0.7254,0,0,-0.7213,-0.7214,0,0,0,0,0,0,0,0,-0.7196,-0.7198,-0.7214,-0.7212,-0.7211,-0.7215,-0.7224,-0.7243,-0.7199,-0.7203,-0.7195,-0.7193,-0.7209,-0.721,-0.7216,-0.7254,-0.7254,-0.7213,-0.7214,-0.7215,-0.7215,0,0,0,0,0,0,0,-0.7195,-0.7198,-0.7233,-0.7214,-0.7212,-0.7202,-0.7203,-0.7227,-0.7216,-0.7202,-0.7199,-0.7201,-0.7208,-0.7214,-0.7216,-0.7254,-0.7213,-0.7215,-0.7216,-0.7217,-0.7332,-0.7334,0,0,0,0,0,0,-0.7196,-0.7197,-0.7233,-0.7233,-0.7199,-0.7205,-0.7205,-0.7216,-0.7215,-0.7213,-0.7202,-0.7199,-0.7211,-0.7213,-0.7216,-0.7271,-0.7215,-0.7217,-0.7218,-0.733,-0.7332,-0.7334,0,0,0,0,0,0,-0.7195,-0.7199,-0.7232,-0.7214,-0.7218,-0.7207,-0.7219,-0.7217,-0.7223,-0.7215,-0.7213,-0.7211,-0.721,-0.7213,-0.7244,-0.7271,-0.7218,-0.7219,-0.7328,-0.7331,-0.7333,-0.7382,0,0,0,0,0,0,-0.7194,-0.7199,-0.7217,-0.7215,-0.7219,-0.7261,-0.7221,-0.7218,-0.7226,-0.7222,-0.7222,-0.7221,-0.7209,-0.7242,-0.7246,-0.7273,-0.7221,-0.7325,-0.7329,-0.7332,-0.7378,-0.7386,-0.7393,0,0,0,0,0,-0.7192,-0.723,-0.7218,-0.7223,-0.7241,-0.7262,-0.7265,-0.725,-0.7228,-0.7246,-0.7241,-0.7221,-0.7267,-0.7245,-0.725,-0.7277,-0.7324,-0.7328,-0.7332,-0.7374,-0.7384,-0.7393,0,0,0,0,0,0,-0.7236,-0.723,-0.7216,-0.7255,-0.7259,-0.7256,-0.7278,-0.7261,-0.7272,-0.7268,-0.7249,-0.7249,-0.7284,-0.7284,-0.726,-0.7323,-0.7292,-0.7297,-0.7322,-0.7331,-0.7339,-0.7338,-0.7223,0,0,0,0,0,-0.725,-0.7268,-0.7261,-0.7296,-0.7299,-0.7288,-0.7297,-0.7285,-0.729,-0.7291,-0.7289,-0.7294,-0.731,-0.732,-0.7334,-0.7377,-0.7377,-0.7398,-0.7406,-0.7412,-0.7417,-0.744,-0.745,-0.7348,-0.7348,-0.7348,0,0,-0.7279,-0.7278,-0.729,-0.7305,-0.7307,-0.7327,-0.729,-0.7312,-0.7326,-0.7295,-0.7324,-0.7323,-0.7327,-0.7365,-0.7381,-0.7366,-0.7445,-0.7417,-0.7422,-0.7424,-0.7446,-0.7455,-0.7464,-0.7351,-0.7351,-0.735,0,0,-0.7342,-0.7343,-0.7372,-0.7375,-0.7379,-0.7372,-0.7379,-0.7378,-0.7375,-0.7405,-0.7382,-0.7398,-0.7425,-0.743,-0.7435,-0.7501,-0.7482,-0.7506,-0.7545,-0.7568,-0.7576,-0.7583,-0.7607,-0.7616,-0.7511,-0.7511,-0.7511,0,-0.7378,-0.7406,-0.7389,-0.7413,-0.742,-0.7392,-0.7422,-0.7426,-0.7434,-0.744,-0.7422,-0.7456,-0.7457,-0.7495,-0.7511,-0.7517,-0.7524,-0.7506,-0.7576,-0.7583,-0.7589,-0.7612,-0.7621,-0.7514,-0.7513,-0.7513,-0.7513,0,-0.7451,-0.7471,-0.7494,-0.7503,-0.7512,-0.7539,-0.7526,-0.7538,-0.7526,-0.752,-0.7551,-0.7551,-0.7564,-0.7572,-0.756,-0.761,-0.76,-0.7579,-0.7548,-0.7602,-0.7623,-0.7632,-0.7518,-0.7517,-0.7516,-0.7515,0,0,-0.7542,-0.7541,-0.755,-0.7554,-0.7556,-0.7571,-0.7597,-0.761,-0.7621,-0.7627,-0.7649,-0.7672,-0.7653,-0.766,-0.7648,-0.7668,-0.7721,-0.7645,-0.7645,-0.766,-0.7775,-0.7791,-0.7802,-0.7708,-0.771,-0.7711,-0.7775,0,-0.7604,-0.7648,-0.7633,-0.7678,-0.7696,-0.767,-0.7692,-0.7696,-0.7691,-0.7706,-0.7701,-0.7719,-0.7692,-0.7696,-0.7715,-0.771,-0.7744,-0.7705,-0.7728,-0.7729,-0.7729,-0.7812,-0.7829,-0.789,-0.7783,-0.7785,-0.7786,0,-0.7683,-0.7693,-0.7739,-0.7739,-0.7746,-0.7766,-0.7777,-0.7792,-0.7796,-0.7791,-0.7799,-0.7783,-0.7808,-0.7776,-0.7811,-0.7785,-0.7793,-0.7793,-0.7795,-0.7797,-0.7761,-0.7817,-0.7908,-0.7918,-0.7798,-0.7797,-0.7796,0,-0.7746,-0.7771,-0.7802,-0.7806,-0.7806,-0.7821,-0.7821,-0.7823,-0.7833,-0.7842,-0.7848,-0.7861,-0.7868,-0.7878,-0.7866,-0.7844,-0.7903,-0.787,-0.79,-0.7901,-0.7915,-0.7914,-0.8009,-0.7919,-0.7919,-0.7919,-0.7918,0,-0.7818,-0.7847,-0.783,-0.7849,-0.7881,-0.7864,-0.7897,-0.7895,-0.7897,-0.7915,-0.7893,-0.7911,-0.7894,-0.791,-0.7901,-0.7931,-0.7934,-0.7932,-0.7929,-0.7934,-0.7935,-0.794,-0.7936,-0.7921,-0.7921,-0.792,-0.792,0,-0.7893,-0.7883,-0.7915,-0.7912,-0.7912,-0.7936,-0.7934,-0.7952,-0.7946,-0.7969,-0.7974,-0.7964,-0.7982,-0.7971,-0.799,-0.7983,-0.8024,-0.8015,-0.8022,-0.802,-0.8052,-0.8049,-0.8154,-0.8167,-0.8068,-0.8069,-0.807,0,-0.794,-0.7962,-0.7962,-0.7973,-0.7975,-0.7992,-0.8002,-0.7986,-0.7996,-0.8003,-0.802,-0.8036,-0.8048,-0.8078,-0.8073,-0.8087,-0.8079,-0.8115,-0.8081,-0.8086,-0.808,-0.808,-0.8082,-0.8122,-0.8123,-0.8124,-0.8125,0,-0.8025,-0.8018,-0.8032,-0.8045,-0.8056,-0.8065,-0.8072,-0.8083,-0.8067,-0.808,-0.8098,-0.8107,-0.8126,-0.8143,-0.8155,-0.8155,-0.8138,-0.8135,-0.8143,-0.8149,-0.8153,-0.8152,-0.8042,-0.8133,-0.8132,-0.8132,-0.8131,-0.8131,-0.8088,-0.8106,-0.8109,-0.8125,-0.8129,-0.8137,-0.8153,-0.8149,-0.8164,-0.8178,-0.8168,-0.819,-0.8193,-0.8208,-0.8211,-0.8228,-0.8213,-0.8225,-0.8228,-0.8231,-0.8236,-0.815,-0.823,-0.823,-0.8229,-0.8229,-0.8229,0,-0.8171,-0.8172,-0.8187,-0.8198,-0.8211,-0.8193,-0.82,-0.8212,-0.8232,-0.8237,-0.8249,-0.827,-0.8286,-0.8283,-0.8297,-0.8312,-0.8304,-0.8316,-0.8315,-0.8316,-0.8247,-0.8239,-0.8322,-0.8322,-0.8322,-0.8322,-0.8322,-0.8322,-0.8216,-0.8247,-0.8241,-0.8274,-0.8274,-0.8295,-0.8301,-0.8308,-0.8312,-0.8337,-0.835,-0.8347,-0.8349,-0.8363,-0.8377,-0.8375,-0.8382,-0.8397,-0.8393,-0.833,-0.832,-0.8312,-0.8304,-0.8399,-0.8399,-0.846,-0.8461,-0.8461]},{"header":{"parameterUnit":"m.s-1","parameterCategory":1,"la1":30.2991,"la2":30.254,"lo1":-89.0895,"lo2":-89.0444,"dy":0.0017,"dx":0.0017,"nx":28,"ny":28,"refTime":"2024-06-15T21:00:00:Z","depth":0,"parameterNumber":3,"parameterNumberName":"V-component_of_WINDS"},"data":[0,0,0,0,0,0,0,0,0,0,0,0,0,0,0,0,0,0,0,0,0,0,0,0,0,0,0,0,0,0,0,0,0,0,0,0,0,0,0,0,0,0,0,0,0,0,0,0,0,0,0,0,0,0,0,0,0,0,-0.5457,-0.5457,0,-0.5504,-0.5504,-0.5505,-0.5494,-0.5493,-0.5492,-0.5491,-0.5541,-0.5543,-0.5545,0,0,0,0,0,0,0,0,0,0,0,0,0,-0.536,-0.5362,-0.5457,-0.5457,-0.5458,-0.5504,-0.5504,-0.5505,-0.5494,-0.5493,-0.5492,-0.5491,-0.554,-0.5543,-0.5545,0,0,0,0,0,0,0,0,0,0,0,0,0,-0.5404,-0.5362,-0.5457,-0.5458,-0.5458,-0.5504,-0.5504,-0.5505,-0.5494,-0.5493,-0.5491,-0.549,-0.5539,-0.5542,-0.5546,-0.5593,0,0,-0.5556,-0.5557,0,0,0,0,0,0,0,0,-0.5401,-0.5407,-0.5457,-0.5458,-0.5459,-0.5491,-0.5488,-0.5535,-0.5494,-0.5481,-0.5491,-0.5489,-0.5526,-0.553,-0.5542,-0.5595,-0.5597,-0.5556,-0.5558,-0.5559,-0.556,0,0,0,0,0,0,0,-0.5398,-0.5405,-0.5475,-0.5458,-0.5459,-0.5457,-0.5462,-0.5497,-0.551,-0.5482,-0.5481,-0.5487,-0.5526,-0.5539,-0.5543,-0.5598,-0.5556,-0.5559,-0.5561,-0.5562,-0.5694,-0.5696,0,0,0,0,0,0,-0.5394,-0.5403,-0.5474,-0.5477,-0.5426,-0.546,-0.5465,-0.5482,-0.551,-0.5513,-0.5488,-0.5486,-0.5534,-0.5539,-0.5545,-0.5603,-0.5559,-0.5562,-0.5564,-0.5693,-0.5695,-0.5696,0,0,0,0,0,0,-0.5392,-0.5401,-0.5472,-0.544,-0.5449,-0.5463,-0.5482,-0.5484,-0.5497,-0.5514,-0.5517,-0.5498,-0.5533,-0.554,-0.5581,-0.5605,-0.5564,-0.5567,-0.5691,-0.5693,-0.5696,-0.572,0,0,0,0,0,0,-0.539,-0.54,-0.5418,-0.544,-0.545,-0.5507,-0.5484,-0.5486,-0.5502,-0.55,-0.5525,-0.5528,-0.5532,-0.5576,-0.5584,-0.5608,-0.5569,-0.5689,-0.5692,-0.5695,-0.5717,-0.5723,-0.5727,0,0,0,0,0,-0.5386,-0.5423,-0.5419,-0.5427,-0.5473,-0.5509,-0.5515,-0.5519,-0.5504,-0.5523,-0.5534,-0.5527,-0.56,-0.5581,-0.559,-0.5615,-0.5688,-0.5691,-0.5695,-0.5715,-0.5722,-0.5727,0,0,0,0,0,0,-0.5403,-0.5426,-0.5422,-0.5466,-0.5486,-0.5507,-0.553,-0.5526,-0.555,-0.5547,-0.5552,-0.5557,-0.56,-0.5611,-0.5589,-0.5663,-0.5642,-0.5647,-0.5654,-0.5661,-0.5666,-0.5663,-0.5572,0,0,0,0,0,-0.5412,-0.5439,-0.5457,-0.5495,-0.5505,-0.5516,-0.5532,-0.5533,-0.5554,-0.5562,-0.5576,-0.5597,-0.5625,-0.5643,-0.567,-0.5718,-0.5724,-0.574,-0.5745,-0.5749,-0.5755,-0.5782,-0.579,-0.5708,-0.5708,-0.5708,0,0,-0.5431,-0.5447,-0.5464,-0.5499,-0.5514,-0.5543,-0.5523,-0.5554,-0.5576,-0.5567,-0.5607,-0.5618,-0.5642,-0.5687,-0.5708,-0.5698,-0.5778,-0.5754,-0.5757,-0.576,-0.5787,-0.5795,-0.5802,-0.571,-0.571,-0.5709,0,0,-0.5481,-0.5495,-0.5528,-0.5544,-0.5567,-0.5574,-0.5582,-0.5604,-0.5611,-0.5651,-0.5645,-0.5671,-0.5719,-0.5736,-0.5751,-0.5807,-0.5803,-0.5816,-0.5844,-0.5871,-0.5878,-0.5884,-0.5905,-0.5913,-0.5821,-0.5821,-0.5821,0,-0.5502,-0.5544,-0.5546,-0.5578,-0.5595,-0.5587,-0.5622,-0.5637,-0.5668,-0.568,-0.5668,-0.5728,-0.5743,-0.5793,-0.5807,-0.5819,-0.5829,-0.5814,-0.5876,-0.5882,-0.5888,-0.5909,-0.5917,-0.5822,-0.5822,-0.5822,-0.5822,0,-0.557,-0.5599,-0.5624,-0.5654,-0.5672,-0.5706,-0.5714,-0.5733,-0.5732,-0.5741,-0.5782,-0.58,-0.583,-0.5842,-0.5842,-0.5893,-0.5886,-0.5875,-0.5855,-0.5897,-0.5917,-0.5925,-0.5824,-0.5824,-0.5823,-0.5823,0,0,-0.5633,-0.5663,-0.5672,-0.5686,-0.5711,-0.5734,-0.5767,-0.5797,-0.5814,-0.5835,-0.5864,-0.5904,-0.5894,-0.5911,-0.5913,-0.5937,-0.5982,-0.5923,-0.5924,-0.5935,-0.6041,-0.605,-0.6059,-0.5978,-0.598,-0.5981,-0.604,0,-0.5686,-0.5744,-0.5747,-0.58,-0.5828,-0.5822,-0.5851,-0.5869,-0.5878,-0.5904,-0.5913,-0.5943,-0.5927,-0.5937,-0.596,-0.5972,-0.6004,-0.5967,-0.6007,-0.6008,-0.6003,-0.6069,-0.6079,-0.6134,-0.6047,-0.6048,-0.6049,0,-0.5756,-0.578,-0.5835,-0.5857,-0.5869,-0.5895,-0.5923,-0.5947,-0.5968,-0.5973,-0.5992,-0.5991,-0.6026,-0.6002,-0.6051,-0.6027,-0.6043,-0.6051,-0.6053,-0.6058,-0.6033,-0.6079,-0.6151,-0.616,-0.6061,-0.606,-0.6059,0,-0.5799,-0.5844,-0.5884,-0.5896,-0.5921,-0.594,-0.5952,-0.5972,-0.599,-0.6014,-0.6026,-0.6053,-0.6069,-0.6091,-0.6098,-0.608,-0.6147,-0.6124,-0.6154,-0.6154,-0.617,-0.6169,-0.6248,-0.6177,-0.6177,-0.6176,-0.6176,0,-0.5859,-0.5894,-0.5903,-0.5928,-0.5967,-0.597,-0.6009,-0.602,-0.6038,-0.6065,-0.606,-0.6086,-0.6092,-0.612,-0.6125,-0.6165,-0.6172,-0.6178,-0.6179,-0.6179,-0.6179,-0.6192,-0.6189,-0.6179,-0.6178,-0.6178,-0.6177,0,-0.5914,-0.5922,-0.5965,-0.5986,-0.5992,-0.602,-0.6038,-0.6062,-0.607,-0.6104,-0.6113,-0.6125,-0.6157,-0.6165,-0.6203,-0.6207,-0.6255,-0.6252,-0.6248,-0.6249,-0.6278,-0.6276,-0.6369,-0.6383,-0.6301,-0.6302,-0.6303,0,-0.5953,-0.598,-0.6004,-0.6021,-0.6034,-0.6062,-0.608,-0.6084,-0.6104,-0.613,-0.6152,-0.6183,-0.6208,-0.6259,-0.6272,-0.6302,-0.63,-0.6331,-0.6305,-0.6305,-0.6303,-0.6302,-0.6306,-0.6337,-0.6337,-0.6338,-0.6339,0,-0.6022,-0.6025,-0.6051,-0.6078,-0.61,-0.6122,-0.6143,-0.6158,-0.6165,-0.6187,-0.6219,-0.6239,-0.6277,-0.6309,-0.6338,-0.6351,-0.6347,-0.6346,-0.6355,-0.6357,-0.6354,-0.6358,-0.6264,-0.6345,-0.6344,-0.6344,-0.6343,-0.6343,-0.6072,-0.6096,-0.6117,-0.6146,-0.6162,-0.6182,-0.6206,-0.6217,-0.6243,-0.6275,-0.6276,-0.6311,-0.6333,-0.6372,-0.6386,-0.6415,-0.6406,-0.6418,-0.6421,-0.6425,-0.6428,-0.6348,-0.642,-0.642,-0.642,-0.6419,-0.6419,0,-0.6143,-0.6155,-0.6182,-0.6212,-0.6235,-0.6228,-0.6251,-0.6271,-0.6302,-0.6322,-0.6347,-0.6385,-0.6416,-0.6431,-0.6461,-0.6481,-0.648,-0.6489,-0.6489,-0.6492,-0.6434,-0.6424,-0.649,-0.649,-0.649,-0.649,-0.649,-0.649,-0.6182,-0.6223,-0.6228,-0.6277,-0.6289,-0.6324,-0.6338,-0.6357,-0.6373,-0.6415,-0.644,-0.645,-0.6468,-0.65,-0.6528,-0.6532,-0.6544,-0.6555,-0.6558,-0.6503,-0.6496,-0.6489,-0.6481,-0.6557,-0.6557,-0.6614,-0.6615,-0.6615]}]]